Year,Month,Day,Hour,Minute,Value (Times are PST for temperature in C)
2021,06,28,00,00,25.90
2021,06,28,00,01,25.90
2021,06,28,00,02,25.90
2021,06,28,00,03,25.90
2021,06,28,00,04,25.90
2021,06,28,00,05,25.90
2021,06,28,00,06,25.90
2021,06,28,00,07,25.90
2021,06,28,00,08,25.80
2021,06,28,00,09,25.80
2021,06,28,00,10,25.80
2021,06,28,00,11,25.80
2021,06,28,00,12,25.80
2021,06,28,00,13,25.80
2021,06,28,00,14,25.80
2021,06,28,00,15,25.80
2021,06,28,00,16,25.70
2021,06,28,00,17,25.70
2021,06,28,00,18,25.70
2021,06,28,00,19,25.70
2021,06,28,00,20,25.60
2021,06,28,00,21,25.60
2021,06,28,00,22,25.60
2021,06,28,00,23,25.60
2021,06,28,00,24,25.60
2021,06,28,00,25,25.60
2021,06,28,00,26,25.60
2021,06,28,00,27,25.60
2021,06,28,00,28,25.60
2021,06,28,00,29,25.60
2021,06,28,00,30,25.60
2021,06,28,00,31,25.50
2021,06,28,00,32,25.50
2021,06,28,00,33,25.50
2021,06,28,00,34,25.50
2021,06,28,00,35,25.40
2021,06,28,00,36,25.40
2021,06,28,00,37,25.40
2021,06,28,00,38,25.40
2021,06,28,00,39,25.40
2021,06,28,00,40,25.40
2021,06,28,00,41,25.40
2021,06,28,00,42,25.40
2021,06,28,00,43,25.30
2021,06,28,00,44,25.30
2021,06,28,00,45,25.30
2021,06,28,00,46,25.20
2021,06,28,00,47,25.20
2021,06,28,00,48,25.20
2021,06,28,00,49,25.20
2021,06,28,00,50,25.10
2021,06,28,00,51,25.10
2021,06,28,00,52,25.10
2021,06,28,00,53,25.10
2021,06,28,00,54,25.10
2021,06,28,00,55,25.10
2021,06,28,00,56,25.10
2021,06,28,00,57,25.10
2021,06,28,00,58,25.10
2021,06,28,00,59,25.00
2021,06,28,01,00,25.00
2021,06,28,01,01,25.00
2021,06,28,01,02,25.00
2021,06,28,01,03,25.00
2021,06,28,01,04,24.90
2021,06,28,01,05,25.00
2021,06,28,01,06,24.90
2021,06,28,01,07,24.90
2021,06,28,01,08,24.90
2021,06,28,01,09,24.90
2021,06,28,01,10,24.80
2021,06,28,01,11,24.80
2021,06,28,01,12,24.80
2021,06,28,01,13,24.80
2021,06,28,01,14,24.70
2021,06,28,01,15,24.70
2021,06,28,01,16,24.70
2021,06,28,01,17,24.70
2021,06,28,01,18,24.70
2021,06,28,01,19,24.60
2021,06,28,01,20,24.60
2021,06,28,01,21,24.60
2021,06,28,01,22,24.60
2021,06,28,01,23,24.60
2021,06,28,01,24,24.60
2021,06,28,01,25,24.60
2021,06,28,01,26,24.60
2021,06,28,01,27,24.60
2021,06,28,01,28,24.50
2021,06,28,01,29,24.60
2021,06,28,01,30,24.50
2021,06,28,01,31,24.50
2021,06,28,01,32,24.50
2021,06,28,01,33,24.50
2021,06,28,01,34,24.50
2021,06,28,01,35,24.40
2021,06,28,01,36,24.40
2021,06,28,01,37,24.40
2021,06,28,01,38,24.40
2021,06,28,01,39,24.40
2021,06,28,01,40,24.40
2021,06,28,01,41,24.40
2021,06,28,01,42,24.40
2021,06,28,01,43,24.40
2021,06,28,01,44,24.30
2021,06,28,01,45,24.30
2021,06,28,01,46,24.30
2021,06,28,01,47,24.30
2021,06,28,01,48,24.30
2021,06,28,01,49,24.30
2021,06,28,01,50,24.30
2021,06,28,01,51,24.30
2021,06,28,01,52,24.30
2021,06,28,01,53,24.20
2021,06,28,01,54,24.20
2021,06,28,01,55,24.20
2021,06,28,01,56,24.20
2021,06,28,01,57,24.20
2021,06,28,01,58,24.20
2021,06,28,01,59,24.20
2021,06,28,02,00,24.10
2021,06,28,02,01,24.10
2021,06,28,02,02,24.10
2021,06,28,02,03,24.10
2021,06,28,02,04,24.00
2021,06,28,02,05,24.00
2021,06,28,02,06,24.00
2021,06,28,02,07,23.90
2021,06,28,02,08,23.90
2021,06,28,02,09,23.90
2021,06,28,02,10,24.00
2021,06,28,02,11,23.90
2021,06,28,02,12,24.00
2021,06,28,02,13,24.00
2021,06,28,02,14,24.00
2021,06,28,02,15,24.00
2021,06,28,02,16,24.00
2021,06,28,02,17,24.00
2021,06,28,02,18,24.00
2021,06,28,02,19,23.90
2021,06,28,02,20,23.90
2021,06,28,02,21,23.90
2021,06,28,02,22,23.90
2021,06,28,02,23,23.90
2021,06,28,02,24,23.80
2021,06,28,02,25,23.80
2021,06,28,02,26,23.80
2021,06,28,02,27,23.80
2021,06,28,02,28,23.80
2021,06,28,02,29,23.80
2021,06,28,02,30,23.70
2021,06,28,02,31,23.70
2021,06,28,02,32,23.70
2021,06,28,02,33,23.70
2021,06,28,02,34,23.70
2021,06,28,02,35,23.70
2021,06,28,02,36,23.70
2021,06,28,02,37,23.70
2021,06,28,02,38,23.70
2021,06,28,02,39,23.70
2021,06,28,02,40,23.70
2021,06,28,02,41,23.70
2021,06,28,02,42,23.70
2021,06,28,02,43,23.70
2021,06,28,02,44,23.70
2021,06,28,02,45,23.80
2021,06,28,02,46,23.70
2021,06,28,02,47,23.70
2021,06,28,02,48,23.70
2021,06,28,02,49,23.70
2021,06,28,02,50,23.70
2021,06,28,02,51,23.70
2021,06,28,02,52,23.70
2021,06,28,02,53,23.70
2021,06,28,02,54,23.70
2021,06,28,02,55,23.60
2021,06,28,02,56,23.60
2021,06,28,02,57,23.50
2021,06,28,02,58,23.50
2021,06,28,02,59,23.50
2021,06,28,03,00,23.50
2021,06,28,03,01,23.40
2021,06,28,03,02,23.40
2021,06,28,03,03,23.40
2021,06,28,03,04,23.40
2021,06,28,03,05,23.40
2021,06,28,03,06,23.40
2021,06,28,03,07,23.40
2021,06,28,03,08,23.40
2021,06,28,03,09,23.40
2021,06,28,03,10,23.40
2021,06,28,03,11,23.40
2021,06,28,03,12,23.40
2021,06,28,03,13,23.50
2021,06,28,03,14,23.50
2021,06,28,03,15,23.50
2021,06,28,03,16,23.50
2021,06,28,03,17,23.60
2021,06,28,03,18,23.60
2021,06,28,03,19,23.60
2021,06,28,03,20,23.60
2021,06,28,03,21,23.50
2021,06,28,03,22,23.50
2021,06,28,03,23,23.50
2021,06,28,03,24,23.50
2021,06,28,03,25,23.40
2021,06,28,03,26,23.40
2021,06,28,03,27,23.40
2021,06,28,03,28,23.40
2021,06,28,03,29,23.40
2021,06,28,03,30,23.40
2021,06,28,03,31,23.40
2021,06,28,03,32,23.40
2021,06,28,03,33,23.40
2021,06,28,03,34,23.40
2021,06,28,03,35,23.40
2021,06,28,03,36,23.40
2021,06,28,03,37,23.40
2021,06,28,03,38,23.40
2021,06,28,03,39,23.40
2021,06,28,03,40,23.30
2021,06,28,03,41,23.30
2021,06,28,03,42,23.30
2021,06,28,03,43,23.30
2021,06,28,03,44,23.30
2021,06,28,03,45,23.30
2021,06,28,03,46,23.30
2021,06,28,03,47,23.30
2021,06,28,03,48,23.30
2021,06,28,03,49,23.20
2021,06,28,03,50,23.20
2021,06,28,03,51,23.20
2021,06,28,03,52,23.20
2021,06,28,03,53,23.20
2021,06,28,03,54,23.10
2021,06,28,03,55,23.10
2021,06,28,03,56,23.10
2021,06,28,03,57,23.00
2021,06,28,03,58,23.00
2021,06,28,03,59,23.00
2021,06,28,04,00,22.90
2021,06,28,04,01,22.90
2021,06,28,04,02,22.90
2021,06,28,04,03,22.90
2021,06,28,04,04,22.80
2021,06,28,04,05,22.80
2021,06,28,04,06,22.80
2021,06,28,04,07,22.80
2021,06,28,04,08,22.80
2021,06,28,04,09,22.80
2021,06,28,04,10,22.70
2021,06,28,04,11,22.70
2021,06,28,04,12,22.70
2021,06,28,04,13,22.70
2021,06,28,04,14,22.70
2021,06,28,04,15,22.70
2021,06,28,04,16,22.70
2021,06,28,04,17,22.70
2021,06,28,04,18,22.70
2021,06,28,04,19,22.60
2021,06,28,04,20,22.60
2021,06,28,04,21,22.60
2021,06,28,04,22,22.60
2021,06,28,04,23,22.60
2021,06,28,04,24,22.60
2021,06,28,04,25,22.60
2021,06,28,04,26,22.50
2021,06,28,04,27,22.50
2021,06,28,04,28,22.50
2021,06,28,04,29,22.50
2021,06,28,04,30,22.40
2021,06,28,04,31,22.40
2021,06,28,04,32,22.40
2021,06,28,04,33,22.40
2021,06,28,04,34,22.40
2021,06,28,04,35,22.40
2021,06,28,04,36,22.40
2021,06,28,04,37,22.40
2021,06,28,04,38,22.40
2021,06,28,04,39,22.40
2021,06,28,04,40,22.40
2021,06,28,04,41,22.40
2021,06,28,04,42,22.30
2021,06,28,04,43,22.30
2021,06,28,04,44,22.30
2021,06,28,04,45,22.30
2021,06,28,04,46,22.30
2021,06,28,04,47,22.30
2021,06,28,04,48,22.30
2021,06,28,04,49,22.30
2021,06,28,04,50,22.30
2021,06,28,04,51,22.30
2021,06,28,04,52,22.30
2021,06,28,04,53,22.20
2021,06,28,04,54,22.20
2021,06,28,04,55,22.20
2021,06,28,04,56,22.10
2021,06,28,04,57,22.10
2021,06,28,04,58,22.10
2021,06,28,04,59,22.00
2021,06,28,05,00,22.00
2021,06,28,05,01,22.00
2021,06,28,05,02,21.90
2021,06,28,05,03,21.90
2021,06,28,05,04,21.90
2021,06,28,05,05,21.90
2021,06,28,05,06,21.90
2021,06,28,05,07,21.80
2021,06,28,05,08,21.80
2021,06,28,05,09,21.90
2021,06,28,05,10,21.90
2021,06,28,05,11,21.80
2021,06,28,05,12,21.90
2021,06,28,05,13,21.90
2021,06,28,05,14,21.90
2021,06,28,05,15,21.80
2021,06,28,05,16,21.80
2021,06,28,05,17,21.80
2021,06,28,05,18,21.80
2021,06,28,05,19,21.80
2021,06,28,05,20,21.90
2021,06,28,05,21,21.90
2021,06,28,05,22,21.90
2021,06,28,05,23,21.90
2021,06,28,05,24,21.90
2021,06,28,05,25,22.00
2021,06,28,05,26,22.00
2021,06,28,05,27,22.00
2021,06,28,05,28,22.00
2021,06,28,05,29,22.10
2021,06,28,05,30,22.10
2021,06,28,05,31,22.10
2021,06,28,05,32,22.10
2021,06,28,05,33,22.10
2021,06,28,05,34,22.20
2021,06,28,05,35,22.20
2021,06,28,05,36,22.20
2021,06,28,05,37,22.30
2021,06,28,05,38,22.40
2021,06,28,05,39,22.50
2021,06,28,05,40,22.50
2021,06,28,05,41,22.60
2021,06,28,05,42,22.80
2021,06,28,05,43,22.90
2021,06,28,05,44,23.10
2021,06,28,05,45,23.30
2021,06,28,05,46,23.50
2021,06,28,05,47,23.60
2021,06,28,05,48,23.70
2021,06,28,05,49,23.80
2021,06,28,05,50,23.90
2021,06,28,05,51,24.00
2021,06,28,05,52,24.10
2021,06,28,05,53,24.10
2021,06,28,05,54,24.30
2021,06,28,05,55,24.30
2021,06,28,05,56,24.40
2021,06,28,05,57,24.50
2021,06,28,05,58,24.70
2021,06,28,05,59,24.80
2021,06,28,06,00,24.90
2021,06,28,06,01,25.10
2021,06,28,06,02,25.20
2021,06,28,06,03,25.30
2021,06,28,06,04,25.40
2021,06,28,06,05,25.50
2021,06,28,06,06,25.70
2021,06,28,06,07,25.80
2021,06,28,06,08,25.90
2021,06,28,06,09,26.10
2021,06,28,06,10,26.20
2021,06,28,06,11,26.30
2021,06,28,06,12,26.40
2021,06,28,06,13,26.40
2021,06,28,06,14,26.50
2021,06,28,06,15,26.60
2021,06,28,06,16,26.60
2021,06,28,06,17,26.60
2021,06,28,06,18,26.60
2021,06,28,06,19,26.70
2021,06,28,06,20,26.70
2021,06,28,06,21,26.80
2021,06,28,06,22,26.90
2021,06,28,06,23,27.00
2021,06,28,06,24,27.10
2021,06,28,06,25,27.20
2021,06,28,06,26,27.20
2021,06,28,06,27,27.30
2021,06,28,06,28,27.40
2021,06,28,06,29,27.40
2021,06,28,06,30,27.50
2021,06,28,06,31,27.60
2021,06,28,06,32,27.60
2021,06,28,06,33,27.70
2021,06,28,06,34,27.80
2021,06,28,06,35,27.80
2021,06,28,06,36,27.80
2021,06,28,06,37,27.80
2021,06,28,06,38,27.80
2021,06,28,06,39,27.90
2021,06,28,06,40,27.90
2021,06,28,06,41,27.90
2021,06,28,06,42,27.90
2021,06,28,06,43,28.00
2021,06,28,06,44,28.00
2021,06,28,06,45,28.00
2021,06,28,06,46,28.00
2021,06,28,06,47,28.00
2021,06,28,06,48,28.00
2021,06,28,06,49,28.10
2021,06,28,06,50,28.20
2021,06,28,06,51,28.30
2021,06,28,06,52,28.30
2021,06,28,06,53,28.40
2021,06,28,06,54,28.50
2021,06,28,06,55,28.60
2021,06,28,06,56,28.60
2021,06,28,06,57,28.70
2021,06,28,06,58,28.80
2021,06,28,06,59,28.80
2021,06,28,07,00,28.80
2021,06,28,07,01,28.80
2021,06,28,07,02,28.80
2021,06,28,07,03,28.80
2021,06,28,07,04,28.90
2021,06,28,07,05,28.80
2021,06,28,07,06,28.90
2021,06,28,07,07,28.90
2021,06,28,07,08,29.00
2021,06,28,07,09,29.10
2021,06,28,07,10,29.10
2021,06,28,07,11,29.20
2021,06,28,07,12,29.30
2021,06,28,07,13,29.30
2021,06,28,07,14,29.40
2021,06,28,07,15,29.40
2021,06,28,07,16,29.50
2021,06,28,07,17,29.50
2021,06,28,07,18,29.60
2021,06,28,07,19,29.70
2021,06,28,07,20,29.80
2021,06,28,07,21,29.90
2021,06,28,07,22,30.00
2021,06,28,07,23,30.10
2021,06,28,07,24,30.10
2021,06,28,07,25,30.10
2021,06,28,07,26,30.10
2021,06,28,07,27,30.20
2021,06,28,07,28,30.20
2021,06,28,07,29,30.20
2021,06,28,07,30,30.20
2021,06,28,07,31,30.20
2021,06,28,07,32,30.30
2021,06,28,07,33,30.30
2021,06,28,07,34,30.30
2021,06,28,07,35,30.40
2021,06,28,07,36,30.40
2021,06,28,07,37,30.50
2021,06,28,07,38,30.50
2021,06,28,07,39,30.60
2021,06,28,07,40,30.60
2021,06,28,07,41,30.70
2021,06,28,07,42,30.70
2021,06,28,07,43,30.70
2021,06,28,07,44,30.80
2021,06,28,07,45,30.80
2021,06,28,07,46,30.90
2021,06,28,07,47,31.00
2021,06,28,07,48,31.00
2021,06,28,07,49,31.10
2021,06,28,07,50,31.10
2021,06,28,07,51,31.20
2021,06,28,07,52,31.30
2021,06,28,07,53,31.40
2021,06,28,07,54,31.60
2021,06,28,07,55,31.70
2021,06,28,07,56,31.80
2021,06,28,07,57,31.80
2021,06,28,07,58,31.90
2021,06,28,07,59,32.00
2021,06,28,08,00,32.20
2021,06,28,08,01,32.30
2021,06,28,08,02,32.30
2021,06,28,08,03,32.40
2021,06,28,08,04,32.40
2021,06,28,08,05,32.40
2021,06,28,08,06,32.50
2021,06,28,08,07,32.50
2021,06,28,08,08,32.50
2021,06,28,08,09,32.60
2021,06,28,08,10,32.60
2021,06,28,08,11,32.60
2021,06,28,08,12,32.70
2021,06,28,08,13,32.70
2021,06,28,08,14,32.80
2021,06,28,08,15,32.90
2021,06,28,08,16,33.10
2021,06,28,08,17,33.20
2021,06,28,08,18,33.30
2021,06,28,08,19,33.30
2021,06,28,08,20,33.30
2021,06,28,08,21,33.40
2021,06,28,08,22,33.40
2021,06,28,08,23,33.50
2021,06,28,08,24,33.50
2021,06,28,08,25,33.50
2021,06,28,08,26,33.60
2021,06,28,08,27,33.70
2021,06,28,08,28,33.80
2021,06,28,08,29,33.80
2021,06,28,08,30,33.80
2021,06,28,08,31,33.90
2021,06,28,08,32,33.90
2021,06,28,08,33,34.00
2021,06,28,08,34,34.00
2021,06,28,08,35,34.00
2021,06,28,08,36,34.10
2021,06,28,08,37,34.20
2021,06,28,08,38,34.20
2021,06,28,08,39,34.30
2021,06,28,08,40,34.40
2021,06,28,08,41,34.40
2021,06,28,08,42,34.50
2021,06,28,08,43,34.60
2021,06,28,08,44,34.70
2021,06,28,08,45,34.70
2021,06,28,08,46,34.80
2021,06,28,08,47,34.80
2021,06,28,08,48,34.80
2021,06,28,08,49,34.80
2021,06,28,08,50,34.80
2021,06,28,08,51,34.80
2021,06,28,08,52,34.90
2021,06,28,08,53,34.90
2021,06,28,08,54,35.00
2021,06,28,08,55,35.00
2021,06,28,08,56,35.10
2021,06,28,08,57,35.20
2021,06,28,08,58,35.20
2021,06,28,08,59,35.30
2021,06,28,09,00,35.40
2021,06,28,09,01,35.40
2021,06,28,09,02,35.50
2021,06,28,09,03,35.50
2021,06,28,09,04,35.50
2021,06,28,09,05,35.60
2021,06,28,09,06,35.60
2021,06,28,09,07,35.60
2021,06,28,09,08,35.70
2021,06,28,09,09,35.70
2021,06,28,09,10,35.70
2021,06,28,09,11,35.60
2021,06,28,09,12,35.60
2021,06,28,09,13,35.70
2021,06,28,09,14,35.70
2021,06,28,09,15,35.70
2021,06,28,09,16,35.80
2021,06,28,09,17,35.90
2021,06,28,09,18,35.90
2021,06,28,09,19,35.90
2021,06,28,09,20,35.90
2021,06,28,09,21,36.00
2021,06,28,09,22,36.00
2021,06,28,09,23,36.10
2021,06,28,09,24,36.10
2021,06,28,09,25,36.00
2021,06,28,09,26,36.10
2021,06,28,09,27,36.10
2021,06,28,09,28,36.20
2021,06,28,09,29,36.20
2021,06,28,09,30,36.20
2021,06,28,09,31,36.20
2021,06,28,09,32,36.10
2021,06,28,09,33,36.10
2021,06,28,09,34,36.10
2021,06,28,09,35,36.10
2021,06,28,09,36,36.00
2021,06,28,09,37,36.10
2021,06,28,09,38,36.10
2021,06,28,09,39,36.20
2021,06,28,09,40,36.30
2021,06,28,09,41,36.40
2021,06,28,09,42,36.50
2021,06,28,09,43,36.60
2021,06,28,09,44,36.70
2021,06,28,09,45,36.70
2021,06,28,09,46,36.70
2021,06,28,09,47,36.70
2021,06,28,09,48,36.80
2021,06,28,09,49,36.80
2021,06,28,09,50,36.80
2021,06,28,09,51,36.80
2021,06,28,09,52,36.80
2021,06,28,09,53,36.80
2021,06,28,09,54,36.80
2021,06,28,09,55,36.80
2021,06,28,09,56,36.80
2021,06,28,09,57,36.80
2021,06,28,09,58,36.90
2021,06,28,09,59,36.90
2021,06,28,10,00,36.90
2021,06,28,10,01,37.00
2021,06,28,10,02,37.10
2021,06,28,10,03,37.10
2021,06,28,10,04,37.10
2021,06,28,10,05,37.10
2021,06,28,10,06,37.10
2021,06,28,10,07,37.20
2021,06,28,10,08,37.30
2021,06,28,10,09,37.30
2021,06,28,10,10,37.30
2021,06,28,10,11,37.30
2021,06,28,10,12,37.30
2021,06,28,10,13,37.40
2021,06,28,10,14,37.50
2021,06,28,10,15,37.60
2021,06,28,10,16,37.60
2021,06,28,10,17,37.70
2021,06,28,10,18,37.70
2021,06,28,10,19,37.70
2021,06,28,10,20,37.60
2021,06,28,10,21,37.60
2021,06,28,10,22,37.50
2021,06,28,10,23,37.50
2021,06,28,10,24,37.40
2021,06,28,10,25,37.30
2021,06,28,10,26,37.40
2021,06,28,10,27,37.40
2021,06,28,10,28,37.50
2021,06,28,10,29,37.70
2021,06,28,10,30,37.90
2021,06,28,10,31,38.00
2021,06,28,10,32,38.10
2021,06,28,10,33,38.20
2021,06,28,10,34,38.10
2021,06,28,10,35,38.00
2021,06,28,10,36,37.90
2021,06,28,10,37,37.80
2021,06,28,10,38,37.90
2021,06,28,10,39,37.90
2021,06,28,10,40,37.80
2021,06,28,10,41,37.90
2021,06,28,10,42,37.80
2021,06,28,10,43,37.80
2021,06,28,10,44,37.80
2021,06,28,10,45,37.80
2021,06,28,10,46,37.80
2021,06,28,10,47,37.80
2021,06,28,10,48,37.90
2021,06,28,10,49,37.90
2021,06,28,10,50,38.00
2021,06,28,10,51,38.10
2021,06,28,10,52,38.10
2021,06,28,10,53,38.20
2021,06,28,10,54,38.10
2021,06,28,10,55,38.10
2021,06,28,10,56,38.10
2021,06,28,10,57,38.00
2021,06,28,10,58,38.00
2021,06,28,10,59,38.10
2021,06,28,11,00,38.10
2021,06,28,11,01,38.20
2021,06,28,11,02,38.20
2021,06,28,11,03,38.20
2021,06,28,11,04,38.10
2021,06,28,11,05,38.10
2021,06,28,11,06,38.10
2021,06,28,11,07,38.10
2021,06,28,11,08,38.10
2021,06,28,11,09,38.10
2021,06,28,11,10,38.10
2021,06,28,11,11,38.10
2021,06,28,11,12,38.10
2021,06,28,11,13,38.20
2021,06,28,11,14,38.30
2021,06,28,11,15,38.30
2021,06,28,11,16,38.40
2021,06,28,11,17,38.40
2021,06,28,11,18,38.30
2021,06,28,11,19,38.20
2021,06,28,11,20,38.10
2021,06,28,11,21,37.90
2021,06,28,11,22,37.90
2021,06,28,11,23,37.90
2021,06,28,11,24,37.90
2021,06,28,11,25,37.90
2021,06,28,11,26,37.90
2021,06,28,11,27,37.90
2021,06,28,11,28,37.90
2021,06,28,11,29,37.90
2021,06,28,11,30,37.90
2021,06,28,11,31,37.90
2021,06,28,11,32,38.00
2021,06,28,11,33,37.90
2021,06,28,11,34,37.80
2021,06,28,11,35,37.80
2021,06,28,11,36,37.90
2021,06,28,11,37,38.10
2021,06,28,11,38,38.30
2021,06,28,11,39,38.40
2021,06,28,11,40,38.50
2021,06,28,11,41,38.60
2021,06,28,11,42,38.80
2021,06,28,11,43,38.90
2021,06,28,11,44,39.10
2021,06,28,11,45,39.00
2021,06,28,11,46,39.00
2021,06,28,11,47,39.00
2021,06,28,11,48,39.00
2021,06,28,11,49,38.90
2021,06,28,11,50,38.80
2021,06,28,11,51,38.60
2021,06,28,11,52,38.60
2021,06,28,11,53,38.60
2021,06,28,11,54,38.60
2021,06,28,11,55,38.80
2021,06,28,11,56,38.90
2021,06,28,11,57,39.10
2021,06,28,11,58,39.10
2021,06,28,11,59,39.10
2021,06,28,12,00,39.30
2021,06,28,12,01,39.40
2021,06,28,12,02,39.50
2021,06,28,12,03,39.50
2021,06,28,12,04,39.60
2021,06,28,12,05,39.70
2021,06,28,12,06,39.80
2021,06,28,12,07,39.80
2021,06,28,12,08,39.80
2021,06,28,12,09,39.70
2021,06,28,12,10,39.60
2021,06,28,12,11,39.40
2021,06,28,12,12,39.30
2021,06,28,12,13,39.30
2021,06,28,12,14,39.30
2021,06,28,12,15,39.20
2021,06,28,12,16,39.20
2021,06,28,12,17,39.30
2021,06,28,12,18,39.40
2021,06,28,12,19,39.50
2021,06,28,12,20,39.60
2021,06,28,12,21,39.70
2021,06,28,12,22,39.70
2021,06,28,12,23,39.80
2021,06,28,12,24,39.90
2021,06,28,12,25,39.90
2021,06,28,12,26,40.00
2021,06,28,12,27,40.10
2021,06,28,12,28,40.20
2021,06,28,12,29,40.30
2021,06,28,12,30,40.30
2021,06,28,12,31,40.30
2021,06,28,12,32,40.40
2021,06,28,12,33,40.30
2021,06,28,12,34,40.20
2021,06,28,12,35,40.20
2021,06,28,12,36,40.10
2021,06,28,12,37,40.10
2021,06,28,12,38,40.00
2021,06,28,12,39,40.10
2021,06,28,12,40,40.20
2021,06,28,12,41,40.20
2021,06,28,12,42,40.30
2021,06,28,12,43,40.30
2021,06,28,12,44,40.40
2021,06,28,12,45,40.30
2021,06,28,12,46,40.30
2021,06,28,12,47,40.30
2021,06,28,12,48,40.20
2021,06,28,12,49,40.00
2021,06,28,12,50,39.90
2021,06,28,12,51,39.80
2021,06,28,12,52,39.90
2021,06,28,12,53,40.10
2021,06,28,12,54,40.30
2021,06,28,12,55,40.50
2021,06,28,12,56,40.50
2021,06,28,12,57,40.60
2021,06,28,12,58,40.50
2021,06,28,12,59,40.30
2021,06,28,13,00,40.20
2021,06,28,13,01,40.10
2021,06,28,13,02,40.00
2021,06,28,13,03,40.00
2021,06,28,13,04,40.00
2021,06,28,13,05,39.90
2021,06,28,13,06,39.80
2021,06,28,13,07,39.80
2021,06,28,13,08,39.70
2021,06,28,13,09,39.70
2021,06,28,13,10,39.80
2021,06,28,13,11,39.80
2021,06,28,13,12,39.90
2021,06,28,13,13,40.00
2021,06,28,13,14,40.10
2021,06,28,13,15,40.20
2021,06,28,13,16,40.40
2021,06,28,13,17,40.50
2021,06,28,13,18,40.50
2021,06,28,13,19,40.50
2021,06,28,13,20,40.60
2021,06,28,13,21,40.60
2021,06,28,13,22,40.60
2021,06,28,13,23,40.70
2021,06,28,13,24,40.80
2021,06,28,13,25,40.80
2021,06,28,13,26,40.90
2021,06,28,13,27,41.00
2021,06,28,13,28,41.00
2021,06,28,13,29,40.90
2021,06,28,13,30,40.70
2021,06,28,13,31,40.60
2021,06,28,13,32,40.60
2021,06,28,13,33,40.70
2021,06,28,13,34,40.70
2021,06,28,13,35,40.70
2021,06,28,13,36,40.80
2021,06,28,13,37,40.80
2021,06,28,13,38,40.90
2021,06,28,13,39,41.00
2021,06,28,13,40,40.90
2021,06,28,13,41,40.70
2021,06,28,13,42,40.60
2021,06,28,13,43,40.60
2021,06,28,13,44,40.70
2021,06,28,13,45,40.80
2021,06,28,13,46,40.90
2021,06,28,13,47,40.90
2021,06,28,13,48,41.00
2021,06,28,13,49,41.10
2021,06,28,13,50,41.10
2021,06,28,13,51,41.10
2021,06,28,13,52,41.10
2021,06,28,13,53,41.00
2021,06,28,13,54,40.90
2021,06,28,13,55,40.90
2021,06,28,13,56,40.90
2021,06,28,13,57,40.80
2021,06,28,13,58,40.70
2021,06,28,13,59,40.70
2021,06,28,14,00,40.80
2021,06,28,14,01,40.80
2021,06,28,14,02,40.80
2021,06,28,14,03,40.80
2021,06,28,14,04,40.70
2021,06,28,14,05,40.70
2021,06,28,14,06,40.80
2021,06,28,14,07,40.90
2021,06,28,14,08,40.90
2021,06,28,14,09,40.90
2021,06,28,14,10,40.90
2021,06,28,14,11,40.80
2021,06,28,14,12,40.90
2021,06,28,14,13,41.00
2021,06,28,14,14,41.10
2021,06,28,14,15,41.00
2021,06,28,14,16,41.00
2021,06,28,14,17,40.90
2021,06,28,14,18,40.90
2021,06,28,14,19,40.80
2021,06,28,14,20,40.90
2021,06,28,14,21,40.90
2021,06,28,14,22,41.00
2021,06,28,14,23,40.90
2021,06,28,14,24,40.90
2021,06,28,14,25,40.90
2021,06,28,14,26,40.90
2021,06,28,14,27,40.90
2021,06,28,14,28,41.10
2021,06,28,14,29,41.20
2021,06,28,14,30,41.20
2021,06,28,14,31,41.30
2021,06,28,14,32,41.40
2021,06,28,14,33,41.60
2021,06,28,14,34,41.60
2021,06,28,14,35,41.60
2021,06,28,14,36,41.50
2021,06,28,14,37,41.40
2021,06,28,14,38,41.20
2021,06,28,14,39,41.10
2021,06,28,14,40,41.10
2021,06,28,14,41,41.00
2021,06,28,14,42,41.00
2021,06,28,14,43,41.10
2021,06,28,14,44,41.20
2021,06,28,14,45,41.30
2021,06,28,14,46,41.50
2021,06,28,14,47,41.50
2021,06,28,14,48,41.50
2021,06,28,14,49,41.50
2021,06,28,14,50,41.50
2021,06,28,14,51,41.50
2021,06,28,14,52,41.40
2021,06,28,14,53,41.50
2021,06,28,14,54,41.50
2021,06,28,14,55,41.60
2021,06,28,14,56,41.70
2021,06,28,14,57,41.70
2021,06,28,14,58,41.50
2021,06,28,14,59,41.30
2021,06,28,15,00,41.40
2021,06,28,15,01,41.40
2021,06,28,15,02,41.40
2021,06,28,15,03,41.40
2021,06,28,15,04,41.40
2021,06,28,15,05,41.30
2021,06,28,15,06,41.30
2021,06,28,15,07,41.50
2021,06,28,15,08,41.60
2021,06,28,15,09,41.70
2021,06,28,15,10,41.80
2021,06,28,15,11,41.80
2021,06,28,15,12,41.80
2021,06,28,15,13,41.90
2021,06,28,15,14,42.00
2021,06,28,15,15,42.00
2021,06,28,15,16,41.90
2021,06,28,15,17,41.80
2021,06,28,15,18,41.60
2021,06,28,15,19,41.40
2021,06,28,15,20,41.20
2021,06,28,15,21,41.10
2021,06,28,15,22,41.10
2021,06,28,15,23,41.10
2021,06,28,15,24,41.10
2021,06,28,15,25,41.10
2021,06,28,15,26,41.10
2021,06,28,15,27,41.00
2021,06,28,15,28,41.00
2021,06,28,15,29,41.10
2021,06,28,15,30,41.20
2021,06,28,15,31,41.40
2021,06,28,15,32,41.60
2021,06,28,15,33,41.80
2021,06,28,15,34,41.90
2021,06,28,15,35,41.90
2021,06,28,15,36,42.00
2021,06,28,15,37,42.00
2021,06,28,15,38,42.10
2021,06,28,15,39,42.10
2021,06,28,15,40,42.30
2021,06,28,15,41,42.30
2021,06,28,15,42,42.50
2021,06,28,15,43,42.60
2021,06,28,15,44,42.80
2021,06,28,15,45,43.00
2021,06,28,15,46,43.20
2021,06,28,15,47,43.10
2021,06,28,15,48,43.10
2021,06,28,15,49,43.00
2021,06,28,15,50,42.90
2021,06,28,15,51,42.80
2021,06,28,15,52,42.70
2021,06,28,15,53,42.70
2021,06,28,15,54,42.60
2021,06,28,15,55,42.70
2021,06,28,15,56,42.70
2021,06,28,15,57,42.70
2021,06,28,15,58,42.80
2021,06,28,15,59,42.90
2021,06,28,16,00,42.90
2021,06,28,16,01,42.90
2021,06,28,16,02,42.80
2021,06,28,16,03,42.70
2021,06,28,16,04,42.60
2021,06,28,16,05,42.60
2021,06,28,16,06,42.50
2021,06,28,16,07,42.50
2021,06,28,16,08,42.40
2021,06,28,16,09,42.40
2021,06,28,16,10,42.40
2021,06,28,16,11,42.50
2021,06,28,16,12,42.60
2021,06,28,16,13,42.60
2021,06,28,16,14,42.60
2021,06,28,16,15,42.60
2021,06,28,16,16,42.50
2021,06,28,16,17,42.40
2021,06,28,16,18,42.20
2021,06,28,16,19,42.20
2021,06,28,16,20,42.20
2021,06,28,16,21,42.30
2021,06,28,16,22,42.30
2021,06,28,16,23,42.30
2021,06,28,16,24,42.30
2021,06,28,16,25,42.30
2021,06,28,16,26,42.30
2021,06,28,16,27,42.30
2021,06,28,16,28,42.30
2021,06,28,16,29,42.30
2021,06,28,16,30,42.30
2021,06,28,16,31,42.30
2021,06,28,16,32,42.40
2021,06,28,16,33,42.40
2021,06,28,16,34,42.50
2021,06,28,16,35,42.50
2021,06,28,16,36,42.70
2021,06,28,16,37,42.80
2021,06,28,16,38,42.90
2021,06,28,16,39,43.00
2021,06,28,16,40,43.10
2021,06,28,16,41,43.10
2021,06,28,16,42,43.10
2021,06,28,16,43,43.00
2021,06,28,16,44,43.10
2021,06,28,16,45,43.10
2021,06,28,16,46,43.10
2021,06,28,16,47,43.10
2021,06,28,16,48,43.00
2021,06,28,16,49,42.90
2021,06,28,16,50,42.80
2021,06,28,16,51,42.70
2021,06,28,16,52,42.70
2021,06,28,16,53,42.70
2021,06,28,16,54,42.70
2021,06,28,16,55,42.70
2021,06,28,16,56,42.80
2021,06,28,16,57,42.90
2021,06,28,16,58,42.90
2021,06,28,16,59,42.90
2021,06,28,17,00,42.80
2021,06,28,17,01,42.70
2021,06,28,17,02,42.60
2021,06,28,17,03,42.50
2021,06,28,17,04,42.40
2021,06,28,17,05,42.30
2021,06,28,17,06,42.20
2021,06,28,17,07,42.10
2021,06,28,17,08,42.10
2021,06,28,17,09,42.10
2021,06,28,17,10,42.20
2021,06,28,17,11,42.30
2021,06,28,17,12,42.30
2021,06,28,17,13,42.30
2021,06,28,17,14,42.40
2021,06,28,17,15,42.40
2021,06,28,17,16,42.40
2021,06,28,17,17,42.50
2021,06,28,17,18,42.50
2021,06,28,17,19,42.60